Wind_Speed
19 17 15 13 11 12 8 7 3 10 12 5 2 7 6 6 14 14 13 9 14 15 15 6 5 8 10 11 5 3 5 2 6 16 14 17 7 4 3 3 6 2 2 5
24 21 20 17 13 15 8 8 17 14 12 6 8 11 17 17 14 14 5 3 8 7 6 6 12 12 9 17 10 7 7 4 6 10 3 5 3 6 2 3 3 1 4 5
21 24 24 21 18 16 17 7 4 14 17 18 15 16 17 17 23 19 19 8 10 8 12 15 8 11 6 11 11 11 6 5 7 11 10 4 9 15 9 6 2 4 8 20
27 26 22 24 23 21 17 12 7 12 6 10 15 18 17 18 18 16 15 9 16 20 12 17 19 20 19 13 14 10 6 7 11 12 12 14 18 20 18 14 13 12 20 16
29 30 29 27 27 23 27 10 6 16 16 24 18 14 8 14 19 15 20 19 19 16 14 18 15 15 17 12 10 13 14 4 8 10 15 18 19 19 20 20 18 18 22 26
31 32 32 32 31 27 22 23 24 18 11 15 14 15 16 17 16 14 20 12 7 4 10 7 8 13 13 7 7 7 7 6 9 16 18 20 16 13 18 22 22 21 22 22
27 30 32 34 33 35 35 18 19 8 10 12 14 18 18 20 20 18 12 11 11 3 8 8 7 20 13 15 15 13 8 10 9 12 17 18 18 20 24 22 21 18 24 21
22 25 27 31 33 35 37 32 20 11 11 12 17 19 19 21 11 14 11 11 11 7 4 5 6 7 11 16 19 18 18 15 10 9 16 19 26 16 11 16 23 16 15 19
18 16 19 25 27 31 35 38 30 15 6 14 27 14 6 9 8 11 12 13 8 9 6 5 5 7 15 11 13 13 2 6 9 14 12 15 4 14 15 15 18 19 19 19
9 9 12 17 23 27 32 25 33 21 6 23 18 8 5 4 10 6 5 8 5 6 5 7 11 14 17 17 19 13 3 3 7 9 8 5 6 14 18 7 8 21 24 23
9 4 4 15 19 24 32 23 20 28 7 22 13 13 14 12 8 6 4 2 5 4 4 4 5 4 2 2 3 4 5 2 2 3 4 4 3 8 6 7 17 22 27 31
8 7 9 7 4 9 16 9 16 26 21 5 6 14 13 12 7 7 3 1 3 3 2 2 4 3 2 5 2 6 1 2 2 0 3 9 4 5 7 11 16 20 27 36
13 12 9 7 4 9 14 16 18 19 6 11 14 15 14 15 12 5 4 3 4 3 4 2 3 4 4 5 3 7 5 1 2 3 5 11 7 4 11 11 14 18 23 35
5 7 6 4 6 9 8 6 9 7 3 3 7 7 9 6 9 9 8 7 4 5 13 5 3 4 7 7 8 8 8 9 9 9 9 9 7 6 12 16 17 11 18 29
11 8 8 7 6 5 2 3 6 5 2 3 4 6 8 7 7 8 9 10 10 8 5 3 6 7 8 7 8 8 10 7 6 10 11 8 8 10 17 15 16 9 16 31
12 9 8 4 5 5 4 2 3 11 5 6 2 0 6 7 7 8 8 9 11 13 12 5 9 13 8 5 9 14 21 23 21 13 23 23 16 16 15 18 12 9 10 18
18 17 15 13 13 14 5 2 0 7 1 4 3 2 6 7 5 8 9 10 10 9 9 4 10 12 10 4 9 16 22 25 24 25 28 22 21 17 12 14 10 10 9 9
10 8 8 8 7 6 5 6 3 8 4 4 3 1 6 9 5 3 6 4 4 5 7 8 7 10 8 6 10 21 24 27 27 27 29 29 25 25 16 16 16 12 14 12
8 5 5 5 4 3 4 5 8 2 3 2 3 3 2 5 3 0 1 1 3 5 6 8 6 6 2 9 13 22 25 19 28 31 26 26 25 21 17 17 14 10 11 12
9 7 1 4 3 5 4 4 2 2 4 5 4 8 2 3 1 1 1 1 2 2 3 2 2 2 9 14 15 17 20 21 24 18 13 14 17 16 16 17 14 12 12 14
8 5 2 4 7 3 2 2 2 3 3 5 6 5 1 1 2 2 1 1 2 2 1 2 2 2 4 9 13 16 19 18 23 20 10 4 7 10 14 14 13 10 11 11
8 5 5 3 3 3 3 2 2 4 2 3 3 4 5 3 1 2 1 2 2 3 1 2 2 3 7 8 12 15 18 19 18 18 20 16 12 9 6 6 5 5 5 10
5 3 2 3 2 2 3 4 3 2 1 2 4 1 2 1 0 2 2 3 4 2 2 2 3 7 5 7 10 12 15 18 20 18 15 12 12 12 11 7 6 5 7 10
4 3 3 4 3 4 3 7 4 4 5 7 7 4 2 1 2 3 3 2 3 3 4 2 5 5 7 8 9 10 13 17 17 18 15 14 12 13 12 7 3 4 10 12
4 4 4 5 7 4 5 7 9 10 9 7 4 4 4 3 3 3 4 3 4 5 1 3 4 6 7 7 9 11 12 13 14 13 12 11 10 9 8 8 4 8 10 9
4 6 5 9 7 4 4 7 11 11 9 7 6 3 3 4 3 5 6 3 2 2 4 6 5 6 5 6 8 11 13 13 12 11 11 9 8 6 6 6 8 9 9 9
4 4 8 9 10 10 10 10 13 10 5 2 2 3 4 2 3 3 2 3 4 7 7 6 4 3 3 4 7 10 12 13 13 12 10 9 6 5 3 4 3 5 8 8
Wind_Direction
270 270 265 267 266 247 250 243 251 218 182 194 199 241 241 277 263 237 228 240 247 247 267 257 244 234 224 178 151 211 163 194 265 293 304 289 46 74 57 65 327 275 243 274
263 263 261 259 246 231 233 231 245 249 199 229 220 250 257 257 252 258 219 267 221 214 247 253 232 234 216 193 199 194 171 173 289 284 216 62 337 312 359 168 189 359 310 285
271 258 256 252 241 230 219 254 246 222 219 238 252 260 257 250 251 256 269 210 234 237 243 237 263 266 257 191 218 173 173 211 221 251 270 318 279 287 277 188 262 294 252 292
267 259 256 245 239 225 210 221 234 237 222 233 247 255 256 268 266 245 241 264 267 257 262 259 253 256 256 238 216 190 220 234 223 255 272 281 279 286 307 312 274 246 274 251
265 258 250 241 236 224 220 214 216 238 249 263 261 232 237 254 261 269 274 276 283 296 280 267 263 277 261 249 210 225 219 274 263 273 278 271 268 277 277 272 272 275 273 266
269 257 248 239 232 221 221 225 242 265 255 250 258 258 254 253 256 275 265 223 247 253 281 284 309 307 293 266 267 282 290 288 296 285 290 294 289 274 274 274 265 265 262 272
271 259 247 239 230 224 222 224 222 234 244 237 252 263 263 273 292 288 250 267 255 172 220 234 283 260 258 250 257 250 235 247 260 272 282 269 268 271 270 276 280 269 255 269
281 264 249 239 230 224 223 221 217 230 262 268 271 264 268 282 273 263 238 244 251 258 288 264 260 235 239 246 245 241 233 236 248 252 257 278 285 315 341 316 290 300 352 332
290 269 247 233 227 222 224 226 220 223 257 250 256 270 283 286 256 245 241 246 255 259 262 257 258 264 280 268 279 278 28 289 243 247 248 269 18 342 337 296 268 8 344 332
330 276 244 228 221 219 218 221 217 224 218 253 271 274 297 294 244 253 246 215 215 225 239 248 251 262 265 270 275 285 347 323 265 271 243 210 8 343 335 225 328 328 333 321
9 22 279 226 215 217 208 209 204 220 252 246 252 270 266 273 284 273 342 255 219 189 230 259 258 289 319 298 276 146 231 257 4 310 294 8 321 348 15 298 318 325 327 316
37 72 76 83 129 155 179 204 217 227 236 275 269 249 261 268 277 340 20 259 140 231 285 59 310 275 286 330 5 333 85 134 355 268 301 277 197 223 279 305 313 328 326 323
54 74 78 77 137 200 206 220 228 210 230 265 254 249 266 238 240 257 301 329 355 332 321 275 237 283 296 317 51 351 330 26 226 303 302 292 135 228 300 281 318 330 334 330
49 55 48 86 122 163 163 179 191 204 211 260 281 228 227 220 223 225 246 266 296 269 283 261 240 279 294 316 312 320 317 304 298 283 303 300 353 296 331 315 317 325 343 342
44 58 91 108 105 117 187 206 181 190 248 283 185 203 228 220 216 231 238 239 244 257 276 268 272 270 292 297 297 288 292 355 314 284 263 302 297 314 313 302 312 321 342 339
46 67 85 117 87 111 95 24 278 214 224 312 301 328 185 204 224 232 242 244 242 243 253 264 263 273 304 290 284 294 300 298 305 301 301 297 282 276 285 298 292 288 333 348
56 66 76 70 58 41 17 354 13 185 280 281 287 227 201 203 213 230 239 243 250 268 281 264 270 277 281 281 272 280 328 337 329 325 323 307 293 277 280 289 285 285 296 308
23 41 51 49 39 14 355 335 187 183 247 271 284 148 226 196 219 229 226 234 236 245 248 263 274 284 275 257 328 339 331 320 305 300 294 288 292 304 271 272 281 272 281 262
354 5 6 8 353 11 358 21 146 122 269 281 269 294 354 321 234 138 320 320 264 268 262 257 280 255 303 2 344 342 331 318 302 302 289 274 266 275 284 272 261 271 273 271
9 6 294 352 336 333 3 343 322 261 239 229 256 284 252 279 105 96 303 59 279 280 230 279 273 89 26 7 350 333 337 328 329 326 310 269 255 273 282 272 258 259 255 253
351 334 4 316 331 318 282 285 260 234 239 221 255 261 263 357 315 7 202 304 255 268 262 272 231 126 37 8 3 357 350 349 352 356 326 270 234 266 283 292 261 248 263 206
329 304 298 299 292 270 238 241 260 245 300 313 1 6 355 112 87 273 192 255 269 262 193 257 233 106 36 8 6 358 5 5 4 6 18 29 35 26 14 331 280 265 271 200
292 264 269 253 191 269 242 202 230 227 205 275 280 311 346 156 247 253 231 234 235 265 232 225 77 88 30 27 8 4 8 9 10 12 15 12 3 359 356 346 318 288 206 181
273 213 239 235 188 244 276 324 348 328 305 308 318 308 274 181 209 229 238 236 258 252 220 172 97 74 60 34 20 11 6 15 16 16 17 15 11 12 13 13 326 209 164 148
269 256 253 232 250 291 321 306 302 297 310 300 301 271 242 206 233 223 241 224 238 230 12 89 107 60 44 30 19 12 8 7 9 10 8 13 19 26 37 39 88 136 138 139
247 240 244 271 283 284 304 300 296 289 287 282 235 255 254 223 223 207 216 237 235 58 85 119 96 72 48 29 21 17 10 7 5 1 6 2 10 22 34 61 83 85 95 108
249 246 258 273 281 282 291 285 284 295 264 254 267 244 241 294 245 241 239 335 84 112 122 110 92 73 51 24 13 12 6 4 3 359 360 3 2 349 25 16 89 94 96 100
Height
1398 1398 1398 1399 1399 1401 1400 1402 1401 1396 1395 1401 1398 1393 1388 1386 1380 1381 1382 1383 1382 1383 1382 1381 1381 1379 1373 1378 1379 1381 1385 1381 1379 1365 1344 1352 1362 1364 1363 1361 1367 1359 1352 1335
1392 1392 1393 1394 1395 1396 1399 1398 1395 1392 1394 1390 1388 1385 1381 1377 1377 1378 1383 1378 1377 1373 1375 1377 1368 1365 1366 1372 1373 1375 1375 1378 1381 1360 1341 1356 1365 1361 1358 1368 1363 1355 1358 1342
1384 1384 1386 1388 1389 1392 1395 1395 1389 1385 1389 1382 1381 1375 1371 1371 1371 1368 1369 1374 1375 1374 1370 1368 1365 1358 1356 1363 1366 1368 1371 1372 1362 1354 1343 1349 1362 1354 1350 1351 1356 1359 1358 1351
1376 1377 1378 1380 1383 1387 1392 1389 1382 1377 1377 1378 1377 1374 1370 1364 1361 1361 1364 1364 1362 1362 1367 1360 1355 1351 1351 1351 1358 1363 1363 1363 1360 1354 1351 1353 1350 1342 1334 1334 1342 1348 1335 1346
1366 1367 1369 1372 1376 1381 1382 1380 1379 1378 1373 1370 1366 1369 1369 1367 1365 1367 1362 1362 1357 1358 1363 1361 1357 1348 1347 1347 1352 1357 1354 1353 1349 1354 1346 1340 1338 1335 1335 1335 1330 1329 1327 1320
1354 1355 1358 1362 1367 1373 1371 1373 1374 1376 1369 1367 1366 1362 1361 1361 1361 1361 1358 1361 1366 1367 1365 1363 1364 1363 1356 1352 1353 1351 1352 1352 1351 1348 1340 1336 1338 1332 1329 1324 1323 1326 1324 1311
1343 1343 1346 1350 1356 1361 1364 1366 1372 1374 1362 1362 1360 1359 1358 1359 1356 1356 1357 1358 1356 1358 1360 1358 1356 1357 1348 1349 1347 1348 1352 1354 1352 1349 1344 1352 1322 1321 1316 1312 1309 1310 1306 1302
1333 1333 1335 1339 1345 1351 1355 1361 1365 1366 1359 1358 1356 1355 1353 1351 1355 1355 1354 1354 1354 1356 1357 1355 1352 1347 1343 1339 1336 1336 1335 1340 1345 1347 1334 1323 1321 1322 1331 1327 1311 1313 1320 1313
1327 1326 1327 1331 1337 1343 1349 1353 1359 1363 1362 1355 1356 1354 1358 1358 1353 1355 1350 1349 1351 1352 1353 1354 1352 1344 1335 1330 1322 1319 1327 1333 1338 1342 1340 1329 1338 1333 1332 1326 1311 1319 1320 1316
1323 1322 1324 1327 1331 1337 1343 1345 1353 1358 1355 1352 1354 1353 1353 1354 1351 1343 1343 1345 1348 1350 1350 1350 1346 1339 1331 1330 1326 1326 1336 1338 1338 1335 1327 1325 1338 1331 1323 1321 1319 1320 1319 1316
1325 1323 1323 1323 1328 1332 1335 1342 1348 1353 1353 1350 1350 1352 1351 1350 1349 1344 1344 1345 1344 1348 1351 1347 1340 1341 1338 1345 1337 1338 1338 1336 1338 1333 1329 1332 1333 1328 1335 1335 1330 1327 1321 1315
1328 1327 1326 1327 1329 1332 1337 1342 1347 1351 1354 1347 1346 1348 1349 1349 1349 1347 1348 1349 1349 1349 1348 1349 1348 1344 1335 1333 1336 1332 1329 1332 1333 1336 1335 1329 1329 1331 1332 1330 1327 1324 1320 1310
1334 1333 1332 1331 1332 1334 1339 1342 1345 1348 1348 1347 1345 1344 1344 1345 1346 1348 1348 1347 1348 1349 1348 1347 1346 1342 1335 1330 1330 1330 1327 1325 1330 1330 1327 1325 1326 1329 1326 1325 1322 1320 1319 1310
1339 1337 1336 1336 1336 1338 1341 1342 1344 1347 1348 1346 1341 1340 1342 1342 1343 1345 1347 1348 1348 1349 1348 1345 1344 1341 1333 1329 1329 1327 1326 1324 1322 1322 1322 1320 1322 1323 1324 1323 1321 1317 1316 1312
1341 1340 1339 1339 1341 1342 1343 1343 1345 1347 1350 1339 1338 1339 1339 1340 1341 1343 1345 1346 1347 1347 1347 1343 1340 1335 1332 1329 1327 1325 1323 1324 1329 1326 1320 1318 1319 1320 1322 1319 1318 1315 1313 1309
1345 1344 1344 1344 1345 1345 1345 1345 1344 1345 1348 1346 1339 1337 1337 1339 1340 1341 1342 1343 1344 1343 1341 1340 1334 1333 1333 1333 1328 1324 1323 1321 1320 1318 1317 1314 1314 1315 1316 1315 1314 1314 1310 1310
1352 1350 1349 1348 1348 1347 1348 1348 1347 1347 1348 1348 1341 1334 1335 1337 1339 1340 1340 1341 1341 1342 1340 1337 1334 1331 1332 1334 1329 1325 1323 1321 1319 1317 1315 1311 1309 1309 1310 1312 1311 1312 1310 1309
1357 1355 1354 1353 1351 1350 1350 1348 1347 1348 1349 1348 1341 1334 1337 1336 1336 1337 1337 1338 1339 1339 1336 1334 1331 1330 1328 1326 1326 1328 1326 1322 1318 1317 1316 1312 1309 1307 1306 1307 1309 1309 1310 1308
1357 1355 1354 1354 1353 1352 1352 1348 1348 1349 1352 1347 1342 1334 1337 1337 1335 1336 1337 1338 1337 1334 1331 1330 1330 1326 1326 1333 1332 1327 1326 1323 1318 1311 1307 1305 1306 1305 1304 1304 1305 1305 1306 1305
1358 1356 1356 1355 1355 1352 1351 1350 1350 1349 1347 1345 1339 1335 1335 1336 1335 1336 1338 1339 1337 1333 1329 1327 1326 1327 1336 1334 1333 1331 1326 1321 1313 1306 1301 1300 1300 1302 1302 1302 1302 1303 1304 1304
1360 1358 1357 1356 1355 1353 1352 1350 1349 1345 1341 1338 1333 1332 1332 1338 1336 1336 1338 1338 1335 1333 1331 1327 1325 1328 1333 1334 1332 1329 1324 1319 1313 1307 1302 1301 1302 1303 1303 1301 1299 1300 1301 1301
1361 1359 1357 1356 1356 1354 1352 1347 1344 1342 1336 1332 1332 1335 1333 1335 1338 1337 1338 1336 1334 1329 1328 1326 1324 1331 1332 1332 1330 1327 1323 1318 1314 1311 1306 1304 1303 1303 1303 1303 1300 1299 1300 1301
1359 1358 1356 1354 1354 1352 1348 1343 1336 1335 1334 1334 1333 1335 1336 1337 1338 1338 1337 1336 1331 1327 1325 1322 1324 1330 1331 1330 1329 1327 1324 1320 1316 1311 1308 1306 1304 1302 1301 1300 1299 1299 1301 1302
1358 1355 1354 1351 1347 1345 1338 1335 1337 1337 1336 1336 1336 1336 1337 1337 1338 1336 1335 1329 1326 1323 1320 1315 1325 1328 1329 1329 1329 1327 1325 1322 1318 1315 1312 1309 1307 1305 1303 1302 1301 1301 1302 1304
1357 1352 1349 1343 1341 1339 1340 1340 1339 1338 1337 1337 1337 1336 1336 1334 1335 1331 1328 1325 1321 1312 1311 1321 1326 1327 1328 1329 1328 1327 1325 1323 1321 1318 1316 1314 1311 1309 1307 1306 1305 1304 1305 1306
1355 1349 1344 1342 1341 1340 1341 1341 1339 1338 1337 1337 1336 1334 1332 1329 1325 1323 1320 1313 1307 1316 1322 1326 1326 1328 1329 1328 1327 1326 1325 1324 1322 1320 1318 1316 1314 1313 1311 1310 1309 1309 1309 1310
1349 1343 1343 1342 1341 1340 1339 1338 1336 1336 1336 1334 1331 1331 1325 1322 1318 1314 1308 1311 1318 1321 1324 1326 1327 1328 1328 1328 1327 1326 1325 1324 1322 1321 1319 1317 1316 1315 1314 1313 1313 1312 1312 1313